{"data":{"norad_id":51121,"intl_designator":"2022-005T","name":"STARLINK-3399","alt_names":[],"object_type":"PAYLOAD","status":"ACTIVE","operator":null,"country":"US","launch_date":"2022-01-19","launch_site_code":"AFETR","launch_vehicle":null,"mission":null,"orbit_class":"UNKNOWN","rcs_meters":null,"size_class":null,"mass_kg":null,"dimensions":null,"purposes":["comms"],"wikipedia_slug":null,"has_3d_model":false,"image_url":null,"decayed_at":null,"tle_current":{"epoch":"2026-05-25T04:16:05.949696Z","epoch_age_seconds":53071,"freshness":"FRESH","line1":"1 51121U 22005T   26145.17784664  .00000753  00000+0  65395-4 0  9996","line2":"2 51121  53.2154 305.7616 0001506  89.9706 270.1459 15.08841752240422","mean_motion":15.08841752,"eccentricity":0.0001506,"inclination_deg":53.2154,"raan_deg":305.7616,"arg_perigee_deg":89.9706,"mean_anomaly_deg":270.1459,"bstar":6.5395e-5,"rev_number":24042,"period_min":95.437443859918,"perigee_km":538.69620182609,"apogee_km":540.77986578627,"semimajor_km":6917.8750338062,"source":"CELESTRAK","updated_at":"2026-05-25T13:38:16.909940Z"}}}